302P/Lemmon-PanSTARRS (2016)

Japanese version
Home page
Updated on September 17, 2019

---------------------------------------------------------------------

* Profile

Designation 302P/2014 K2
Discovery Date May 21, 2014
Magnitude 21.4 mag
Discoverer Pan-STARRS 1 telescope (Haleakala)

* Pictures

* Orbital Elements

Epoch 2016 May 12.0 TT = JDT 2457520.5
T 2016 Apr. 30.53467 TT                                 MPCW
q   3.3022571            (2000.0)            P               Q
n   0.11130474     Peri.  208.28055     +0.86435324     +0.49489125
a   4.2801627      Node   121.78332     -0.43932157     +0.82952201
e   0.2284739      Incl.    6.03085     -0.24472440     +0.25879699
P   8.86
From 123 observations 2007 Aug. 16-2018 Dec. 31, mean residual 0".5.

* Magnitudes Graph

        m1 = 11.0 + 5 log d + 10.0 log r(t - 300)

---------------------------------------------------------------------

The orbital elements are published on M.P.E.C. 2019-J142.
The magnitudes graphs are made with Comet for Windows.

---------------------------------------------------------------------

Copyright(C) Seiichi Yoshida (comet@aerith.net). All rights reserved.